Location: Unspecified
(0.0000°N, 0.0000°E)
Time: 17:17:50
(UTC+01:00)

Cosmos 2228 - Visible Passes

Search period start: 23 March 2017 00:00
Search period end: 02 April 2017 01:00
Orbit: 590 x 620 km, 82.5° (Epoch: 21 March)

Date Brightness Start Highest point End Pass type
(mag) Time Alt. Az. Time Alt. Az. Time Alt. Az.
25 Mar 6.9 05:56:42 10° E 05:57:15 10° E 05:57:48 10° E visible
25 Mar 6.2 19:38:02 10° SW 19:41:08 20° W 19:44:13 10° NW visible
26 Mar 6.0 07:06:57 10° NE 07:10:12 21° E 07:13:29 10° SE visible
27 Mar 4.6 07:19:04 10° NNE 07:23:10 40° E 07:27:18 10° SSE visible
28 Mar 3.2 07:31:46 10° N 07:36:08 84° E 07:40:33 10° S visible
30 Mar 6.4 06:22:51 10° ENE 06:24:49 13° E 06:26:46 10° ESE visible
31 Mar 5.4 06:34:10 10° NNE 06:37:46 25° E 06:41:23 10° SE visible
01 Apr 4.0 06:46:29 10° N 06:50:44 49° E 06:55:00 10° SSE visible
